CDT,Max TemperatureF,Mean TemperatureF,Min TemperatureF,Max Dew PointF,MeanDew PointF,Min DewpointF,Max Humidity, Mean Humidity, Min Humidity, Max Sea Level PressureIn, Mean Sea Level PressureIn, Min Sea Level PressureIn, Max VisibilityMiles, Mean VisibilityMiles, Min VisibilityMiles, Max Wind SpeedMPH, Mean Wind SpeedMPH, Max Gust SpeedMPH,PrecipitationIn, CloudCover, Events, WindDirDegrees
2013-7-1,100,88,75,69,59,51,69,42,21,29.97,29.89,29.83,10,10,10,15,9,22,0.00,0,,26
2013-7-2,98,83,71,69,61,52,81,51,23,30.02,29.97,29.92,10,10,10,18,5,20,0.00,2,,307
2013-7-3,91,82,72,72,67,59,87,64,36,30.02,29.97,29.91,10,10,10,17,6,23,0.00,0,,166
2013-7-4,90,80,70,71,69,66,90,69,48,29.99,29.95,29.90,10,10,7,14,5,21,0.00,0,,144
2013-7-5,93,80,70,74,69,64,90,67,41,29.96,29.92,29.86,10,9,6,18,6,24,0.00,0,,111
2013-7-6,93,83,73,76,72,69,93,70,45,29.91,29.89,29.84,10,10,6,18,8,25,0.00,1,,98
2013-7-7,90,84,78,77,74,72,88,76,59,30.00,29.94,29.89,10,10,7,22,8,29,0.00,4,Rain,140
2013-7-8,91,84,77,76,75,73,90,78,55,30.13,30.07,29.99,10,9,2,16,12,32,0.00,4,Rain,112
2013-7-9,93,84,77,78,75,73,94,76,57,30.14,30.09,30.05,10,10,10,18,6,23,0.00,1,,142
2013-7-10,91,85,80,77,75,73,89,73,57,30.09,30.04,29.97,10,10,9,16,9,21,0.03,2,Rain,176
2013-7-11,91,86,81,75,74,71,79,69,54,30.01,29.98,29.93,10,10,10,16,10,82,0.00,1,,187
2013-7-12,93,85,79,75,73,70,82,66,48,29.97,29.93,29.90,10,10,10,14,10,20,0.00,1,,192
2013-7-13,93,83,73,75,72,68,93,68,45,29.98,29.92,29.86,10,10,10,16,7,22,0.00,0,,211
2013-7-14,91,86,80,74,73,69,79,66,48,29.94,29.90,29.86,10,10,10,20,10,26,0.00,2,,183
2013-7-15,91,82,73,75,72,68,94,74,54,30.00,29.94,29.88,10,9,2,18,12,26,0.02,1,Rain-Thunderstorm,133
2013-7-16,91,84,77,75,72,68,88,71,52,30.08,30.03,29.98,10,10,10,17,10,24,0.01,2,,107
2013-7-17,84,80,75,75,73,71,94,88,69,30.15,30.12,30.07,10,8,1,15,7,32,0.95,3,Rain-Thunderstorm,59
2013-7-18,91,82,73,76,73,71,94,77,52,30.13,30.08,29.99,10,10,9,17,7,25,0.01,1,Rain-Thunderstorm,83
2013-7-19,91,82,73,76,73,70,93,72,55,30.05,30.00,29.93,10,10,7,14,6,,0.00,1,Thunderstorm,130
2013-7-20,91,82,75,75,73,71,94,72,55,29.98,29.94,29.88,10,10,7,15,8,23,0.00,0,,150
2013-7-21,88,81,75,78,75,72,94,85,70,30.00,29.95,29.91,10,8,1,22,9,36,1.33,5,Rain-Thunderstorm,145
2013-7-22,90,86,82,78,77,76,85,77,63,30.03,29.98,29.95,10,9,8,18,13,26,0.00,4,,171
2013-7-23,90,86,82,77,75,73,82,73,61,30.04,29.99,29.93,10,10,8,17,14,25,0.00,5,,179
2013-7-24,90,86,82,76,75,73,82,72,61,30.01,29.96,29.90,10,10,8,17,12,23,0.00,3,,185
2013-7-25,91,86,82,77,75,73,79,72,61,30.03,30.00,29.97,10,10,10,15,10,21,0.00,1,,184
2013-7-26,90,86,82,77,76,74,82,73,65,30.04,29.99,29.93,10,10,10,16,13,26,0.00,3,,184
2013-7-27,91,86,82,77,76,73,82,74,59,29.96,29.93,29.86,10,10,9,17,14,28,0.00,4,,206
2013-7-28,90,86,82,77,76,73,84,74,59,29.97,29.93,29.90,10,10,9,17,11,24,0.00,4,,184
2013-7-29,91,86,82,77,75,73,84,74,57,30.07,30.01,29.96,10,10,9,20,15,26,0.00,4,,165
2013-7-30,90,86,82,76,75,73,79,72,57,30.12,30.07,30.03,10,10,10,16,13,23,0.00,2,,172
2013-7-31,91,86,81,76,74,73,79,71,55,30.10,30.04,29.97,10,10,10,14,10,21,0.00,2,,183